• In Portugal
  • List of Countries
  • For 7 days
  • Water Temperature
  • Satellite Maps
  • Weather Map
  • Weather Widgets
  • user-avatar
    Login

    Hourly Weather Tobruk

    Today, 24 February, Saturday

    Time Temperature Precipitation Wind Pressure Humidity
    00:00 +19°C° 0 mm 5 mps 753 mmHg 39%
    01:00 +19°C° 0 mm 5 mps 753 mmHg 39%
    02:00 +19°C° 0 mm 6 mps 753 mmHg 39%
    03:00 +19°C° 0 mm 5 mps 754 mmHg 39%
    04:00 +19°C° 0 mm 5 mps 754 mmHg 39%
    05:00 +19°C° 0 mm 5 mps 754 mmHg 39%
    06:00 +17°C° 0 mm 5 mps 754 mmHg 47%
    07:00 +17°C° 0 mm 5 mps 755 mmHg 55%
    08:00 +16°C° 0 mm 6 mps 755 mmHg 63%
    09:00 +17°C° 0 mm 6 mps 755 mmHg 62%
    10:00 +17°C° 0 mm 6 mps 756 mmHg 60%
    11:00 +19°C° 0 mm 6 mps 756 mmHg 58%
    12:00 +19°C° 0 mm 6 mps 756 mmHg 53%
    13:00 +20°C° 0 mm 6 mps 756 mmHg 48%
    14:00 +20°C° 0 mm 5 mps 756 mmHg 43%
    15:00 +20°C° 0 mm 6 mps 756 mmHg 43%
    16:00 +20°C° 0 mm 6 mps 756 mmHg 43%
    17:00 +20°C° 0 mm 6 mps 756 mmHg 43%
    18:00 +19°C° 0 mm 6 mps 756 mmHg 49%
    19:00 +17°C° 0 mm 5 mps 756 mmHg 54%
    20:00 +16°C° 0 mm 5 mps 756 mmHg 60%
    21:00 +16°C° 0 mm 5 mps 757 mmHg 62%
    22:00 +16°C° 0 mm 5 mps 757 mmHg 64%
    23:00 +15°C° 0 mm 5 mps 757 mmHg 66%

    Tomorrow, 25 February, Sunday

    Time Temperature Precipitation Wind Pressure Humidity
    00:00 +15°C° 0 mm 5 mps 757 mmHg 65%
    01:00 +15°C° 0 mm 4 mps 758 mmHg 65%
    02:00 +15°C° 0 mm 4 mps 758 mmHg 65%
    03:00 +14°C° 0 mm 4 mps 757 mmHg 66%
    04:00 +14°C° 0 mm 3 mps 757 mmHg 66%
    05:00 +14°C° 0 mm 3 mps 757 mmHg 67%
    06:00 +14°C° 0 mm 3 mps 757 mmHg 66%
    07:00 +15°C° 0 mm 2 mps 757 mmHg 64%
    08:00 +15°C° 0 mm 2 mps 757 mmHg 63%
    09:00 +16°C° 0 mm 2 mps 757 mmHg 59%
    10:00 +17°C° 0 mm 2 mps 757 mmHg 55%
    11:00 +17°C° 0 mm 3 mps 758 mmHg 52%
    12:00 +18°C° 0 mm 3 mps 757 mmHg 47%
    13:00 +19°C° 0 mm 3 mps 757 mmHg 43%
    14:00 +20°C° 0 mm 4 mps 756 mmHg 38%
    15:00 +20°C° 0 mm 4 mps 756 mmHg 37%
    16:00 +20°C° 0 mm 5 mps 755 mmHg 35%
    17:00 +20°C° 0 mm 5 mps 754 mmHg 34%
    18:00 +19°C° 0.3 mm 4 mps 754 mmHg 37%
    19:00 +19°C° 0.3 mm 3 mps 754 mmHg 39%
    20:00 +18°C° 0.3 mm 2 mps 754 mmHg 42%
    21:00 +18°C° 0 mm 3 mps 754 mmHg 41%
    22:00 +18°C° 0 mm 4 mps 754 mmHg 41%
    23:00 +17°C° 0 mm 5 mps 754 mmHg 40%

    Day after tomorrow, 26 February, Monday

    Time Temperature Precipitation Wind Pressure Humidity
    00:00 +17°C° 0 mm 6 mps 753 mmHg 42%
    01:00 +16°C° 0 mm 6 mps 753 mmHg 44%
    02:00 +16°C° 0 mm 6 mps 753 mmHg 46%
    03:00 +16°C° 0 mm 6 mps 752 mmHg 51%
    04:00 +15°C° 0 mm 6 mps 752 mmHg 56%
    05:00 +15°C° 0 mm 6 mps 751 mmHg 61%
    06:00 +15°C° 0 mm 6 mps 752 mmHg 61%
    07:00 +15°C° 0 mm 7 mps 752 mmHg 61%
    08:00 +16°C° 0 mm 7 mps 752 mmHg 61%
    09:00 +17°C° 0.2 mm 7 mps 752 mmHg 58%
    10:00 +18°C° 0.2 mm 8 mps 752 mmHg 54%
    11:00 +21°C° 0.2 mm 8 mps 752 mmHg 51%
    12:00 +21°C° 0 mm 9 mps 752 mmHg 45%
    13:00 +22°C° 0 mm 9 mps 752 mmHg 40%
    14:00 +22°C° 0 mm 10 mps 752 mmHg 35%
    15:00 +21°C° 0 mm 10 mps 753 mmHg 36%
    16:00 +21°C° 0 mm 10 mps 753 mmHg 37%
    17:00 +19°C° 0 mm 10 mps 753 mmHg 37%
    18:00 +18°C° 0 mm 9 mps 754 mmHg 41%
    19:00 +17°C° 0 mm 8 mps 755 mmHg 45%
    20:00 +16°C° 0 mm 7 mps 755 mmHg 49%
    21:00 +16°C° 0 mm 6 mps 755 mmHg 51%
    22:00 +15°C° 0 mm 6 mps 756 mmHg 53%
    23:00 +15°C° 0 mm 6 mps 756 mmHg 54%

    27 February, Tuesday

    Time Temperature Precipitation Wind Pressure Humidity
    00:00 +14°C° 0 mm 6 mps 756 mmHg 57%
    01:00 +14°C° 0 mm 6 mps 756 mmHg 60%
    02:00 +13°C° 0 mm 6 mps 756 mmHg 63%
    03:00 +13°C° 0 mm 5 mps 756 mmHg 65%
    04:00 +13°C° 0 mm 5 mps 756 mmHg 68%
    05:00 +12°C° 0 mm 5 mps 756 mmHg 71%
    06:00 +12°C° 0 mm 5 mps 756 mmHg 71%
    07:00 +12°C° 0 mm 5 mps 757 mmHg 72%
    08:00 +12°C° 0 mm 4 mps 757 mmHg 72%
    09:00 +14°C° 0 mm 4 mps 757 mmHg 66%
    10:00 +15°C° 0 mm 4 mps 758 mmHg 60%
    11:00 +17°C° 0 mm 4 mps 758 mmHg 53%
    12:00 +18°C° 0 mm 4 mps 757 mmHg 48%
    13:00 +19°C° 0 mm 3 mps 757 mmHg 42%
    14:00 +20°C° 0 mm 3 mps 756 mmHg 37%
    15:00 +21°C° 0 mm 3 mps 756 mmHg 35%
    16:00 +21°C° 0 mm 3 mps 756 mmHg 33%
    17:00 +21°C° 0 mm 2 mps 756 mmHg 31%
    18:00 +20°C° 0 mm 2 mps 756 mmHg 33%
    19:00 +19°C° 0 mm 3 mps 757 mmHg 35%
    20:00 +19°C° 0 mm 3 mps 757 mmHg 37%
    21:00 +18°C° 0 mm 3 mps 757 mmHg 36%
    22:00 +18°C° 0 mm 4 mps 757 mmHg 35%
    23:00 +18°C° 0 mm 4 mps 757 mmHg 34%

    28 February, Wednesday

    Time Temperature Precipitation Wind Pressure Humidity
    00:00 +17°C° 0 mm 5 mps 756 mmHg 34%
    01:00 +16°C° 0 mm 6 mps 756 mmHg 34%
    02:00 +16°C° 0 mm 6 mps 755 mmHg 33%
    03:00 +16°C° 0 mm 7 mps 755 mmHg 33%
    04:00 +16°C° 0 mm 7 mps 754 mmHg 33%
    05:00 +16°C° 0 mm 8 mps 754 mmHg 33%
    06:00 +16°C° 0 mm 8 mps 754 mmHg 33%
    07:00 +16°C° 0 mm 8 mps 754 mmHg 33%
    08:00 +16°C° 0 mm 8 mps 754 mmHg 34%
    09:00 +18°C° 0.2 mm 8 mps 754 mmHg 31%
    10:00 +21°C° 0.2 mm 8 mps 754 mmHg 28%
    11:00 +23°C° 0.2 mm 8 mps 755 mmHg 25%
    12:00 +24°C° 0.2 mm 7 mps 754 mmHg 25%
    13:00 +26°C° 0.2 mm 6 mps 754 mmHg 25%
    14:00 +27°C° 0.2 mm 5 mps 753 mmHg 25%
    15:00 +27°C° 0 mm 4 mps 754 mmHg 26%
    16:00 +27°C° 0 mm 4 mps 754 mmHg 27%
    17:00 +26°C° 0 mm 4 mps 754 mmHg 28%
    18:00 +23°C° 0 mm 5 mps 754 mmHg 39%
    19:00 +21°C° 0 mm 6 mps 755 mmHg 49%
    20:00 +18°C° 0 mm 7 mps 756 mmHg 60%
    21:00 +18°C° 0 mm 7 mps 756 mmHg 64%
    22:00 +17°C° 0 mm 7 mps 757 mmHg 68%
    23:00 +17°C° 0 mm 7 mps 758 mmHg 72%

    1 March, Thursday

    Time Temperature Precipitation Wind Pressure Humidity
    00:00 +16°C° 0 mm 7 mps 758 mmHg 75%
    01:00 +16°C° 0 mm 7 mps 758 mmHg 78%
    02:00 +16°C° 0 mm 7 mps 759 mmHg 80%
    03:00 +16°C° 0 mm 7 mps 759 mmHg 81%
    04:00 +15°C° 0 mm 7 mps 759 mmHg 83%
    05:00 +15°C° 0 mm 7 mps 759 mmHg 84%
    06:00 +15°C° 0 mm 7 mps 759 mmHg 82%
    07:00 +15°C° 0 mm 7 mps 760 mmHg 79%
    08:00 +15°C° 0 mm 7 mps 760 mmHg 77%
    09:00 +16°C° 0 mm 6 mps 761 mmHg 70%
    10:00 +17°C° 0 mm 6 mps 761 mmHg 62%
    11:00 +19°C° 0 mm 6 mps 761 mmHg 55%
    12:00 +20°C° 0 mm 6 mps 761 mmHg 52%
    13:00 +20°C° 0 mm 5 mps 761 mmHg 49%
    14:00 +21°C° 0 mm 5 mps 760 mmHg 46%
    15:00 +20°C° 0 mm 5 mps 760 mmHg 48%
    16:00 +20°C° 0 mm 4 mps 760 mmHg 49%
    17:00 +20°C° 0 mm 4 mps 760 mmHg 51%
    18:00 +19°C° 0 mm 4 mps 760 mmHg 57%
    19:00 +18°C° 0 mm 3 mps 760 mmHg 63%
    20:00 +17°C° 0 mm 3 mps 761 mmHg 69%
    21:00 +17°C° 0 mm 2 mps 761 mmHg 71%
    22:00 +16°C° 0 mm 2 mps 761 mmHg 73%
    23:00 +16°C° 0 mm 1 mps 761 mmHg 75%
    Show more